Trieste, Italy

9:10 AM CEST on April 25, 2018 (GMT +0200)
Trieste

Weather History for LIVT - November, 2013

Change the Weather History Date:

Sunday, November 3, 2013

  Actual Average Record
Temperature  
Mean Temperature 63 °F -  
Max Temperature 67 °F 53 °F 71 °F (2004)
Min Temperature 59 °F 45 °F 42 °F (2006)
Degree Days  
Heating Degree Days 2    
Growing Degree Days 13 (Base 50)    
Moisture  
Dew Point 58 °F    
Average Humidity 88    
Maximum Humidity 94    
Minimum Humidity 68    
Precipitation  
Precipitation 0.47 in 0.15 in - ()
Sea Level Pressure  
Sea Level Pressure 29.80 in    
Wind  
Wind Speed 5 mph ()    
Max Wind Speed 14 mph    
Max Gust Speed 32 mph    
Visibility 6.2 miles    
Events Rain , Thunderstorm    
Averages and records for this station are not official NWS values.
T = Trace of Precipitation, MM = Missing Value Source: Averaged Metar Reports

Daily Weather History Graph

Daily Weather History Graph

Search for Another Location

Airport or City:

Astronomy

Nov. 03, 2013 Rise Set
Actual Time 6:47 AM CET 4:48 PM CET
Civil Twilight 6:16 AM CET 5:20 PM CET
Nautical Twilight 5:41 AM CET 5:55 PM CET
Astronomical Twilight 5:06 AM CET 6:29 PM CET
Moon 6:32 AM CET (11/3) 4:49 PM CET (11/3)
Length of Visible Light 11h 03m
Length of Day
10h 01m
Waning Crescent, 0% of the Moon is Illuminated
Nov 3
Waning Crescent
Nov 3
New
Nov 10
First Quarter
Nov 17
Full
Nov 25
Last Quarter

Hourly Weather History & Observations

Time (CET) Temp. Dew Point Humidity Pressure Visibility Wind Dir Wind Speed Gust Speed Precip Events Conditions
12:55 AM 60.8 °F 59.0 °F 94% 29.95 in 6.2 mi East 3.5 mph - N/A   Scattered Clouds
1:00 AM 61 °F 58 °F 87% 29.95 in 12 mi East 3.5 mph - -   Overcast
1:55 AM 60.8 °F 59.0 °F 94% 29.92 in 6.2 mi ENE 4.6 mph - N/A   Mostly Cloudy
2:55 AM 60.8 °F 59.0 °F 94% 29.92 in 6.2 mi ENE 4.6 mph - N/A   Mostly Cloudy
3:55 AM 60.8 °F 57.2 °F 88% 29.89 in 6.2 mi NW 4.6 mph - N/A   Light Drizzle
4:55 AM 60.8 °F 57.2 °F 88% 29.89 in 6.2 mi ENE 3.5 mph - N/A   Light Drizzle
5:55 AM 59.0 °F 57.2 °F 94% 29.86 in 5.0 mi ENE 3.5 mph - N/A   Light Drizzle
6:55 AM 60.8 °F 57.2 °F 88% 29.83 in 5.0 mi NE 3.5 mph - N/A   Mostly Cloudy
7:00 AM 60 °F 57 °F 88% 29.84 in 2 mi NE 3.5 mph - - Rain Light Drizzle
7:55 AM 62.6 °F 59.0 °F 88% 29.80 in 5.0 mi East 5.8 mph - N/A   Mostly Cloudy
8:55 AM 62.6 °F 59.0 °F 88% 29.80 in 6.2 mi ESE 6.9 mph - N/A   Mostly Cloudy
9:55 AM 64.4 °F 57.2 °F 77% 29.77 in 6.2 mi SSE 11.5 mph 23.0 mph N/A   Mostly Cloudy
10:55 AM 66.2 °F 57.2 °F 73% 29.77 in 6.2 mi South 12.7 mph 27.6 mph N/A   Mostly Cloudy
11:55 AM 66.2 °F 55.4 °F 68% 29.74 in 6.2 mi South 13.8 mph 29.9 mph N/A   Mostly Cloudy
12:55 PM 64.4 °F 59.0 °F 83% 29.71 in 6.2 mi South 12.7 mph 24.2 mph N/A   Mostly Cloudy
1:55 PM 64.4 °F 60.8 °F 88% 29.71 in 6.2 mi South 11.5 mph 24.2 mph N/A Rain Rain
2:55 PM 64.4 °F 59.0 °F 83% 29.68 in 4.3 mi South 12.7 mph 28.8 mph N/A Rain , Thunderstorm Light Thunderstorms and Rain
3:55 PM 64.4 °F 62.6 °F 94% 29.71 in 3.7 mi South 11.5 mph 32.2 mph N/A Rain , Thunderstorm Thunderstorms and Rain
4:55 PM 64.4 °F 62.6 °F 94% 29.71 in 6.2 mi NNW 2.3 mph - N/A   Mostly Cloudy
5:55 PM 62.6 °F 60.8 °F 94% 29.71 in 6.2 mi Variable 1.2 mph - N/A   Partly Cloudy
6:55 PM 60.8 °F 59.0 °F 94% 29.74 in - ENE 2.3 mph - N/A   Clear
7:00 PM 61 °F 59 °F 90% 29.75 in 12 mi ENE 2.3 mph - -   Partly Cloudy
7:55 PM 60.8 °F 57.2 °F 88% 29.77 in - ENE 2.3 mph - N/A   Clear
8:55 PM 59.0 °F 57.2 °F 94% 29.77 in - ENE 2.3 mph - N/A   Clear
9:55 PM 60.8 °F 57.2 °F 88% 29.80 in - East 2.3 mph - N/A   Clear
10:55 PM 60.8 °F 55.4 °F 82% 29.80 in - East 5.8 mph - N/A   Clear
11:55 PM 60.8 °F 57.2 °F 88% 29.80 in - East 4.6 mph - N/A   Clear